Probability
0 3 11 19 21 20 17 12 8 6 6 8 10 12 12 11 10 10 10 10 10 9 8 6 6 5 6 8 9 10 10 8 5 5 7 7 6 6 5 4 3 7 12
1 4 14 22 25 23 19 13 9 7 8 9 11 12 12 12 12 12 11 10 10 9 8 5 4 4 5 7 9 10 11 11 9 8 8 7 7 7 6 5 6 10 14
2 5 15 24 27 26 22 16 13 12 12 12 12 12 13 14 15 15 14 11 9 8 6 3 2 4 5 7 8 10 13 13 13 11 9 8 8 9 9 9 10 14 17
4 6 14 24 27 26 24 21 18 18 17 16 14 13 14 15 15 15 14 12 8 6 4 2 3 5 7 7 7 9 11 12 13 11 9 7 8 12 13 14 15 18 20
8 9 15 25 28 25 24 23 22 21 21 19 17 15 15 15 14 13 13 11 8 5 5 5 5 7 8 8 7 6 7 8 9 9 7 6 7 11 15 16 18 21 22
10 9 15 24 27 25 23 23 23 22 21 21 19 17 17 15 13 11 10 9 8 7 7 7 8 9 9 9 8 7 5 4 4 6 6 5 5 9 14 17 20 21 22
10 10 14 22 26 24 22 22 23 22 20 20 20 20 20 18 15 12 10 9 8 7 7 7 9 10 9 9 9 8 6 4 3 5 5 4 5 10 15 19 22 23 23
14 15 18 21 22 21 20 22 22 22 22 21 22 24 25 23 20 16 12 10 9 8 7 6 7 8 10 10 10 9 7 5 4 4 4 4 7 13 18 20 23 24 23
18 21 23 21 17 16 18 20 22 25 25 24 25 27 29 28 25 20 17 15 13 12 10 7 6 8 10 11 11 10 8 6 4 4 4 4 7 13 18 23 26 26 23
16 20 24 22 17 15 16 18 21 25 27 26 26 28 30 29 25 22 22 21 19 17 15 13 11 11 12 13 14 12 11 8 6 6 5 5 6 10 17 25 29 28 24
11 14 20 21 19 17 16 17 20 22 24 24 25 26 27 27 24 22 22 23 22 20 19 19 18 17 16 16 15 15 15 13 11 9 8 8 9 12 17 26 31 29 27
10 11 14 17 18 17 16 17 19 19 19 20 21 21 22 23 22 20 19 19 20 21 20 21 22 21 19 17 16 17 18 18 15 13 11 11 12 14 19 26 30 30 30
12 11 10 13 15 16 16 16 19 20 18 17 16 16 18 19 19 18 18 17 18 19 19 20 22 22 20 19 18 18 18 18 17 14 13 14 14 16 21 26 29 31 32
15 13 10 10 13 15 16 17 19 21 20 17 15 15 16 16 15 15 15 16 16 17 17 19 22 21 19 19 18 17 17 18 17 15 13 13 15 18 23 26 29 33 33
17 16 13 11 12 13 15 17 17 17 17 16 15 15 15 15 13 13 13 14 14 15 17 18 19 19 17 16 16 16 16 16 16 14 12 11 14 20 24 25 28 33 34
16 15 12 10 11 11 12 13 11 11 12 13 13 13 14 14 12 12 12 13 14 15 16 16 16 16 15 13 13 14 14 13 12 11 9 9 12 18 22 23 25 30 32
12 11 9 8 9 9 8 7 7 8 9 10 10 10 12 13 13 12 12 13 14 14 14 13 13 14 13 11 11 11 10 9 9 8 7 7 8 13 17 19 22 26 28
8 7 7 9 8 7 7 7 7 8 9 9 8 7 9 11 12 13 12 12 12 12 11 10 10 11 11 10 8 8 7 7 7 7 6 6 6 7 11 15 18 21 23
6 5 7 9 9 8 7 8 8 8 9 9 8 7 7 9 11 12 12 12 11 10 9 8 8 9 9 8 6 5 4 4 5 6 6 6 5 5 7 10 12 14 16
6 5 5 7 9 9 8 9 8 7 6 7 7 7 6 7 8 10 11 11 11 11 9 7 7 7 7 6 4 2 2 2 3 4 4 5 5 4 5 6 6 8 10
7 6 4 5 6 7 7 8 7 4 4 5 6 6 5 4 5 8 10 11 11 11 10 7 6 6 5 5 3 1 0 0 1 2 3 4 4 4 4 5 4 5 6
8 7 5 5 5 7 8 7 5 4 3 5 6 6 5 4 4 6 8 10 11 11 9 7 5 4 4 3 2 1 0 0 0 1 2 4 4 4 3 4 3 3 4
11 9 7 6 6 8 8 7 5 5 5 5 6 5 5 5 6 7 8 9 10 10 8 5 4 3 3 2 1 0 0 0 0 0 1 2 3 3 3 3 3 3 3
10 10 8 7 7 7 7 7 7 7 6 5 5 4 4 6 7 7 7 8 9 8 6 4 4 4 3 1 0 0 0 0 0 0 0 0 1 1 1 2 3 3 3
8 8 8 7 6 6 6 7 8 8 7 7 6 5 5 5 6 7 7 7 7 7 6 4 4 4 3 1 0 0 0 0 0 0 0 0 0 0 0 1 2 2 2
5 7 7 6 5 5 5 6 8 9 9 9 8 7 6 6 6 6 6 6 6 6 6 5 3 3 2 1 0 0 0 0 0 0 0 0 0 0 0 0 1 1 1
Wind_Speed
5 7 13 13 13 13 13 13 13 13 13 13 13 13 13 14 14 14 14 13 12 12 11 10 9 8 7 7 6 6 6 6 5 6 6 6 7 7 8 8 8 6 9
10 9 15 14 13 13 13 13 13 13 13 12 12 12 12 12 12 12 12 11 11 10 10 9 8 7 6 6 5 5 4 4 3 4 4 5 5 7 7 7 8 5 10
12 10 13 15 14 13 13 12 12 12 12 12 12 12 12 11 11 11 11 10 9 9 9 8 7 6 5 4 3 3 3 2 2 3 3 2 3 6 7 8 8 8 9
13 9 10 15 14 13 13 12 12 12 12 11 11 11 11 10 10 10 9 9 8 8 7 7 6 5 4 4 3 3 2 2 3 3 2 2 3 6 8 9 9 9 9
11 8 11 15 14 13 13 12 12 12 11 11 11 10 10 10 9 9 8 8 7 7 6 6 5 5 4 4 4 4 4 4 5 4 2 3 3 6 9 10 10 10 10
9 8 10 15 14 13 13 12 12 11 11 10 10 10 10 9 9 8 8 7 7 6 6 6 6 5 5 5 5 5 5 6 5 3 3 3 4 8 9 11 11 10 10
8 6 8 13 13 12 12 12 12 11 10 10 10 9 9 8 8 8 8 7 7 7 6 6 6 6 6 6 6 7 7 7 4 3 3 3 4 8 9 11 11 11 11
10 7 7 11 12 11 11 11 11 10 10 9 9 9 8 8 8 8 8 7 7 7 7 7 7 7 7 7 8 8 8 8 5 4 4 4 6 8 10 10 11 11 11
8 7 5 5 7 10 10 10 10 10 10 9 9 8 8 8 8 8 8 8 8 8 8 8 8 8 8 9 9 9 9 9 5 3 5 4 7 9 10 11 11 11 11
6 6 5 4 4 4 5 8 9 9 9 8 8 8 8 8 8 9 8 8 9 9 9 9 9 9 9 10 10 10 9 8 4 4 3 4 8 8 9 11 11 11 11
5 3 4 4 3 3 4 6 6 7 7 7 6 7 6 3 4 5 8 10 10 10 10 10 10 9 9 10 11 10 8 3 3 3 4 8 9 9 9 10 11 11 11
5 3 3 4 4 3 3 3 2 3 3 3 3 3 3 2 3 5 7 10 10 10 10 10 10 10 7 4 7 9 3 4 4 4 5 10 10 9 9 10 10 11 11
4 4 3 3 3 3 2 2 2 2 2 2 3 3 2 2 2 3 2 4 5 6 4 5 5 4 3 3 3 3 3 3 3 4 5 10 10 10 11 11 11 11 12
4 3 3 2 2 2 2 1 2 2 2 2 3 3 3 2 2 2 2 2 2 2 2 2 2 3 4 5 5 5 5 4 4 3 5 10 10 11 12 12 12 12 12
3 3 3 3 2 1 2 1 1 1 2 2 2 3 3 2 2 2 2 2 2 2 2 2 3 4 4 4 4 5 5 5 5 5 4 10 11 11 13 13 13 13 12
2 2 2 3 3 2 1 1 1 2 2 1 1 2 3 2 2 2 2 2 2 2 3 3 3 3 3 3 3 4 4 5 5 5 5 6 11 12 13 13 13 13 13
3 2 3 3 3 2 2 1 1 1 1 1 1 2 2 2 2 2 2 2 2 2 2 2 2 2 2 2 3 4 3 4 4 5 5 5 5 10 13 13 12 12 13
3 3 3 3 3 2 1 1 0 0 1 1 1 1 2 2 2 2 2 2 2 2 1 2 1 1 2 2 3 3 3 3 4 5 5 5 4 5 8 12 13 13 13
3 3 3 2 2 2 1 1 1 1 0 0 1 1 1 2 1 1 2 2 2 1 1 2 1 2 2 2 3 3 2 3 4 4 4 5 5 4 4 8 12 13 14
3 3 2 2 1 2 1 2 1 1 1 1 1 1 1 1 1 1 1 2 1 1 1 1 2 1 2 2 3 3 3 3 3 3 4 3 3 4 4 5 5 8 13
3 3 2 2 0 1 1 1 1 1 1 1 1 1 1 1 1 1 1 2 1 2 2 2 2 2 2 1 1 3 3 3 3 3 3 3 3 4 4 5 4 4 5
3 3 3 1 1 1 1 1 1 1 1 1 1 1 2 2 1 1 1 2 2 2 2 2 2 1 2 1 1 1 3 4 3 3 3 3 4 3 4 5 5 5 4
3 3 3 1 1 1 1 1 1 2 2 2 2 2 2 2 2 2 2 2 2 2 2 2 2 2 2 2 2 2 1 3 3 3 3 3 3 3 3 3 5 5 5
2 2 2 2 1 0 1 1 1 0 1 2 2 2 3 2 2 2 1 1 2 1 2 3 2 2 2 2 1 2 3 3 2 3 4 3 3 3 4 4 4 4 5
2 2 2 1 0 0 0 1 1 0 1 2 2 2 2 2 2 2 1 1 1 1 2 3 3 2 2 2 2 2 2 2 2 2 4 4 3 3 3 3 3 3 4
2 2 2 2 0 0 0 0 1 1 2 2 2 2 2 2 2 3 2 2 2 2 2 2 2 2 2 2 2 2 2 2 2 2 3 4 4 4 3 2 3 3 3
Wind_Direction
148 156 147 139 133 128 124 121 118 115 113 111 111 111 112 114 116 118 120 124 127 129 130 131 131 131 129 128 126 124 126 132 142 153 157 161 164 163 161 158 155 154 150
149 155 147 141 137 133 129 127 124 123 121 120 118 117 118 119 121 123 126 129 131 132 134 136 137 137 137 137 136 137 138 141 152 168 180 181 184 182 176 168 163 158 154
143 149 147 143 140 137 134 132 130 130 129 127 126 125 125 127 128 131 133 136 138 140 142 145 147 149 149 149 152 156 161 173 186 199 213 212 208 206 194 183 170 162 160
142 145 147 145 142 140 138 138 137 137 135 134 134 134 134 136 136 138 141 145 148 150 152 154 159 164 167 173 183 191 201 220 242 240 226 221 225 218 203 191 179 172 169
141 144 151 146 144 143 144 145 145 145 142 142 142 142 143 145 145 147 151 154 158 162 165 169 173 180 187 195 208 224 235 245 254 253 240 232 227 228 218 200 187 183 180
138 145 152 147 147 147 149 151 151 150 149 150 150 150 151 153 156 160 164 167 170 175 184 190 191 192 202 213 224 235 244 253 260 250 239 232 224 223 214 200 194 191 187
134 141 150 149 150 151 153 156 156 155 154 155 157 159 161 163 166 171 175 180 184 190 199 202 205 207 215 223 232 240 248 256 250 234 234 236 222 215 208 200 196 194 193
139 140 143 150 152 155 157 158 159 159 159 161 164 168 171 173 178 183 189 194 196 201 210 216 222 223 227 234 240 246 252 255 255 243 232 234 227 215 206 202 199 198 196
128 133 136 147 153 158 159 160 162 164 165 168 173 176 180 182 188 195 201 205 207 211 219 226 231 232 236 242 247 251 254 255 244 238 243 235 232 216 209 204 201 201 200
118 129 135 140 142 151 161 168 169 170 172 175 179 185 190 197 203 208 211 217 219 222 226 232 236 240 244 247 251 254 256 257 242 237 239 239 233 222 212 204 203 203 201
119 127 134 138 145 150 163 173 172 175 178 181 188 193 197 209 214 218 222 226 228 229 233 238 242 246 250 253 257 257 256 238 231 236 233 238 233 225 213 204 203 203 202
137 143 142 143 148 155 174 166 166 180 178 177 187 197 197 205 223 224 232 234 238 239 241 245 248 249 250 253 262 262 246 232 225 236 236 236 230 226 219 208 203 204 205
146 147 152 156 152 158 163 159 173 179 181 191 205 204 206 210 225 229 229 243 246 248 247 253 254 247 239 237 241 245 240 229 228 232 234 231 227 225 223 209 205 208 210
133 135 141 140 143 157 143 158 170 176 182 195 213 211 202 208 219 223 222 229 229 234 237 240 245 250 248 244 241 240 235 226 228 226 232 232 230 228 222 214 211 211 213
130 133 141 130 119 122 122 162 161 189 189 198 210 215 205 201 215 219 221 218 224 222 225 229 236 245 248 248 246 241 237 234 231 224 233 234 232 229 225 222 219 214 214
124 128 131 132 125 124 138 159 172 188 189 190 207 219 215 211 218 217 230 221 225 222 224 227 236 240 247 246 253 249 240 237 234 232 234 240 238 231 228 227 225 220 217
142 128 121 126 115 121 145 162 169 188 166 171 203 218 222 227 226 217 225 229 232 233 234 244 253 247 259 264 262 261 251 240 233 233 236 235 236 234 231 229 227 222 220
122 105 102 100 105 104 114 136 122 115 129 179 219 232 235 240 231 229 232 241 243 245 237 237 242 241 255 261 264 267 263 256 247 238 231 229 227 235 236 231 225 223 222
136 123 109 90 107 109 99 87 81 55 78 214 225 235 234 247 243 219 235 247 245 247 254 257 247 226 250 266 264 264 261 253 251 254 242 233 225 224 225 233 229 229 229
131 127 120 106 113 114 84 58 38 22 338 305 275 264 263 255 244 213 236 253 243 236 254 254 259 258 244 255 274 284 275 265 251 245 246 240 226 223 218 225 228 234 235
111 107 102 91 133 113 93 82 49 329 304 305 274 261 273 266 256 251 275 268 250 228 235 241 246 259 261 258 304 310 303 283 263 247 241 238 232 228 222 222 219 219 232
122 114 101 103 121 117 135 168 183 215 249 243 299 297 286 276 274 282 268 262 259 256 267 265 255 242 260 226 175 315 318 323 309 268 249 238 240 230 229 231 221 217 221
128 137 122 124 114 120 109 75 38 25 6 1 339 317 300 288 279 278 277 272 268 250 257 259 244 215 249 262 183 171 204 256 300 301 270 256 249 239 236 236 231 221 214
145 132 122 131 119 111 106 115 121 104 294 274 267 278 298 299 298 290 286 284 275 264 266 266 247 226 215 254 251 208 211 205 226 300 305 286 267 252 244 244 239 228 221
137 133 128 110 110 92 94 140 135 246 267 281 289 295 301 304 301 296 282 276 285 277 276 272 259 236 214 220 230 237 252 250 216 216 278 295 295 267 245 236 234 233 229
130 127 123 126 180 231 170 111 151 225 269 303 307 298 295 294 293 292 285 281 280 270 267 267 268 254 232 221 228 224 224 233 232 216 243 262 272 274 259 241 239 238 233